This is the latest recevied weather packets stored in our database for station/object KI4NG. If no packets are shown the sender has not sent any weather packets the latest 10 day(s).
| Time | Temp. | Humidity | Pressure | Rain* | Wind** | Luminosity | Snow |
|---|---|---|---|---|---|---|---|
| 1787952443 | 29.44° C | 54% | 1019.2 hPa | 0 mm | - | 391 W/m² | - |
| 1787952140 | 29.44° C | 53% | 1019.2 hPa | 0 mm | - | 311 W/m² | - |
| 1787951838 | 29.44° C | 53% | 1019.4 hPa | 0 mm | - | 389 W/m² | - |
| 1787951534 | 30° C | 51% | 1019.4 hPa | 0 mm | - | 91 W/m² | - |
| 1787951230 | 30° C | 55% | 1019.1 hPa | 0 mm | - | 421 W/m² | - |
| 1787950926 | 30° C | 53% | 1019.2 hPa | 0 mm | - | 442 W/m² | - |
| 1787950621 | 30° C | 51% | 1019.3 hPa | 0 mm | - | 462 W/m² | - |
| 1787950317 | 30° C | 54% | 1019.3 hPa | 0 mm | - | 491 W/m² | - |
| 1787950013 | 30° C | 53% | 1019.4 hPa | 0 mm | - | 489 W/m² | - |
| 1787949708 | 29.44° C | 54% | 1019.4 hPa | 0 mm | - | 529 W/m² | - |
| 1787949407 | 30° C | 56% | 1019.3 hPa | 0 mm | - | 532 W/m² | - |
| 1787949102 | 28.89° C | 58% | 1019.4 hPa | 0 mm | - | 532 W/m² | - |
| 1787948799 | 30° C | 55% | 1019.4 hPa | 0 mm | - | 109 W/m² | - |
| 1787948498 | 30° C | 58% | 1019.3 hPa | 0 mm | - | 557 W/m² | - |
| 1787948194 | 30° C | 54% | 1019.5 hPa | 0 mm | - | 573 W/m² | - |
| 1787947892 | 29.44° C | 56% | 1019.5 hPa | 0 mm | - | 565 W/m² | - |
| 1787947587 | 30° C | 56% | 1019.6 hPa | 0 mm | - | 583 W/m² | - |
| 1787947281 | 30° C | 54% | 1019.6 hPa | 0 mm | - | 604 W/m² | - |
| 1787946980 | 30° C | 52% | 1019.8 hPa | 0 mm | - | 592 W/m² | - |
| 1787946679 | 30° C | 54% | 1019.4 hPa | 0 mm | - | 496 W/m² | - |
| 1787946374 | 30.56° C | 53% | 1019.7 hPa | 0 mm | - | 434 W/m² | - |
| 1787946074 | 30.56° C | 55% | 1019.8 hPa | 0 mm | - | 528 W/m² | - |
| 1787945769 | 30° C | 57% | 1019.6 hPa | 0 mm | - | 654 W/m² | - |
| 1787945463 | 30° C | 60% | 1019.8 hPa | 0 mm | - | 630 W/m² | - |
| 1787945159 | 30° C | 56% | 1019.8 hPa | 0 mm | - | 196 W/m² | - |
* Rain latest hour (hover to see other rain measurements)
** Current wind speed in m/s (hover to see current wind gust speed)